Laramie, WY

7:44 PM MDT on June 22, 2017 (GMT -0600)
Laramie Regional

Weather History for KLAR - October, 2011

Change the Weather History Date:

Tuesday, October 11, 2011

  Actual Average Record
Temperature  
Mean Temperature 47 °F 44 °F  
Max Temperature 55 °F 58 °F 76 °F (1950)
Min Temperature 39 °F 29 °F 9 °F (1977)
Degree Days  
Heating Degree Days 18 21  
Month to date heating degree days 195 216  
Since 1 July heating degree days 548 741  
Cooling Degree Days 0 0  
Month to date cooling degree days 0 0  
Year to date cooling degree days 126 67  
Moisture  
Dew Point 33 °F    
Average Humidity 62    
Maximum Humidity 79    
Minimum Humidity 45    
Precipitation  
Precipitation T in 0.02 in 0.63 in (1985)
Month to date precipitation 0.33 0.31  
Year to date precipitation 8.97 9.57  
Sea Level Pressure  
Sea Level Pressure 29.81 in    
Wind  
Wind Speed 18 mph (WSW)    
Max Wind Speed 37 mph    
Max Gust Speed 49 mph    
Visibility 10 miles    
Events      
T = Trace of Precipitation, MM = Missing Value Source: NWS Daily Summary

Daily Weather History Graph

Daily Weather History Graph

Search for Another Location

Airport or City:

Trip Planner

Search our weather history database for the weather conditions in past years. The results will help you decide how hot, cold, wet, or windy it might be!

Date:

Astronomy

Oct. 11, 2011 Rise Set
Actual Time 7:09 AM MDT 6:28 PM MDT
Civil Twilight 6:42 AM MDT 6:56 PM MDT
Nautical Twilight 6:10 AM MDT 7:28 PM MDT
Astronomical Twilight 5:38 AM MDT 8:00 PM MDT
Moon 6:00 PM MDT (10/11) 6:50 AM MDT (10/11)
Length of Visible Light 12h 13m
Length of Day
11h 18m
Full, 100% of the Moon is Illuminated
Oct 11
Full
Oct 11
Full
Oct 19
Last Quarter
Oct 26
New
Nov 2
First Quarter

Hourly Weather History & Observations

Time (MDT) Temp. Windchill Dew Point Humidity Pressure Visibility Wind Dir Wind Speed Gust Speed Precip Events Conditions
12:53 AM 41.0 °F - 28.9 °F 62% 29.77 in 10.0 mi Calm Calm - N/A   Overcast
1:53 AM 41.0 °F 35.2 °F 28.9 °F 62% 29.77 in 10.0 mi West 9.2 mph - N/A   Overcast
2:53 AM 42.1 °F 35.7 °F 30.9 °F 65% 29.75 in 10.0 mi West 11.5 mph - N/A   Overcast
3:53 AM 41.0 °F 33.5 °F 30.9 °F 67% 29.75 in 10.0 mi SW 13.8 mph - N/A   Overcast
4:53 AM 39.0 °F 31.8 °F 32.0 °F 76% 29.77 in 10.0 mi SSW 11.5 mph - N/A   Overcast
5:53 AM 39.2 °F 30.5 °F 32.0 °F 75% 29.92 in 10.0 mi SW 16.1 mph - N/A   Overcast
6:53 AM 39.2 °F 30.8 °F 33.8 °F 81% 29.92 in 10.0 mi SW 15.0 mph - N/A   Mostly Cloudy
7:53 AM 41.0 °F 34.7 °F 33.8 °F 76% 29.92 in 10.0 mi WSW 10.4 mph - N/A   Overcast
8:53 AM 42.1 °F 34.9 °F 33.1 °F 70% 29.80 in 10.0 mi West 13.8 mph - N/A   Overcast
9:53 AM 46.9 °F - 33.1 °F 59% 29.78 in 10.0 mi West 21.9 mph - 0.00 in   Mostly Cloudy
10:53 AM 48.0 °F - 34.0 °F 58% 29.77 in 10.0 mi WSW 25.3 mph 31.1 mph N/A   Mostly Cloudy
11:53 AM 51.1 °F - 33.1 °F 50% 29.75 in 10.0 mi West 25.3 mph 33.4 mph N/A   Mostly Cloudy
1:53 PM 53.6 °F - 33.8 °F 47% 29.88 in 10.0 mi WSW 27.6 mph 35.7 mph N/A   Clear
2:53 PM 51.1 °F - 33.1 °F 50% 29.71 in 10.0 mi West 25.3 mph 36.8 mph N/A   Scattered Clouds
3:53 PM 52.0 °F - 32.0 °F 47% 29.73 in 10.0 mi WSW 19.6 mph 27.6 mph N/A   Mostly Cloudy
4:53 PM 45.0 °F 37.4 °F 36.0 °F 71% 29.81 in 10.0 mi WSW 18.4 mph - N/A   Mostly Cloudy
5:53 PM 48.0 °F - 35.1 °F 61% 29.78 in 10.0 mi WSW 25.3 mph 34.5 mph N/A   Mostly Cloudy
6:53 PM 43.0 °F 34.5 °F 35.1 °F 74% 29.83 in 10.0 mi WSW 19.6 mph 31.1 mph 0.00 in   Scattered Clouds
7:53 PM 41.0 °F 33.9 °F 35.1 °F 79% 29.84 in 10.0 mi WSW 12.7 mph - N/A   Scattered Clouds
8:53 PM 42.1 °F 34.9 °F 34.0 °F 73% 29.84 in 10.0 mi West 13.8 mph 24.2 mph N/A   Mostly Cloudy
9:53 PM 39.0 °F 30.3 °F 33.1 °F 79% 29.83 in 10.0 mi WNW 16.1 mph - N/A   Partly Cloudy
10:53 PM 42.1 °F 32.8 °F 32.0 °F 67% 29.82 in 10.0 mi West 21.9 mph - 0.00 in   Mostly Cloudy
11:53 PM 41.0 °F 32.5 °F 30.9 °F 67% 29.82 in 10.0 mi WNW 17.3 mph - N/A   Clear